Kolkata, India

12:58 PM IST on September 01, 2015 (GMT +0530)
Netaji Subhash Chandra Bose International | | Change Station
CLOSE
Current Station
Airport
Location: Kolkata,
Elevation: 20 ft
Nearby Weather Stations

Elev 20 ft 22.65 °N, 88.44 °E | Updated 8 minutes ago

Mostly Cloudy
Mostly Cloudy
86 °F
Feels Like 108 °F
N
6
Wind Variable Wind from SW

Today
High -- | Low -- °F
--% Chance of Precip.
Yesterday
High -- | Low -- °F
Precip. -- in
5:18 AM 5:53 PM
Waning Gibbous, 91% visible
Pressure 29.56 in
Visibility 1.6 miles
Clouds Scattered Clouds 1800 ft
Few 3000 ft
Mostly Cloudy 9000 ft
Heat Index 108 °F
Dew Point 84 °F
Humidity 94%
Rainfall 0.00 in
Snow Depth Not available.
UV 8 out of 12
Pollen Not available.
Air Quality Not available.
Flu Activity Not available.
METAR VECC 010720Z 23005KT 2600 BR SCT018 FEW030CB BKN090 30/29 Q1001 NOSIG
Pressure 29.56 in
Visibility 1.6 miles
Clouds Scattered Clouds 1800 ft
Few 3000 ft
Mostly Cloudy 9000 ft
Heat Index 108 °F
Dew Point 84 °F
Humidity 94%
Rainfall 0.00 in
Snow Depth Not available.
UV 8 out of 12
Pollen Not available.
Air Quality Not available.
Flu Activity Not available.
METAR VECC 010720Z 23005KT 2600 BR SCT018 FEW030CB BKN090 30/29 Q1001 NOSIG

10-Day Weather Forecast

×

Almanac

Astronomy

Sep. 01, 2015 Rise Set
Actual Time
Civil Twilight
Nautical Twilight
Astronomical Twilight
Moon
Length of Visible Light
Length of Day
Tomorrow will be .
, % of the Moon is Illuminated

Today's Extremes

Country Highs Country Lows

Community

WunderPhotos

Upload Photos

1,851,488 photos uploaded!

WunderBlogs® & News

Nearby

Air Quality

  Air Quality AQ Index Pollutant
Not available.

Snow Depth

Station Depth Elevation

Earthquake Activity

City Distance Mag. Time & Date
Minimum magnitude displayed is 2.5.

Coastal Water Temperatures

Place Temperature

Stations

Nearby Weather Stations

Station Location Temp. Windchill Dew Point Humidity Wind Precip. Elev Updated Type